Year,Month,Day,Hour,Minute,Value (Times are PST for temperature in C)
2015,06,20,00,00,11.80
2015,06,20,00,01,11.80
2015,06,20,00,02,11.80
2015,06,20,00,03,11.80
2015,06,20,00,04,11.80
2015,06,20,00,05,11.80
2015,06,20,00,06,11.80
2015,06,20,00,07,11.80
2015,06,20,00,08,11.70
2015,06,20,00,09,11.70
2015,06,20,00,10,11.70
2015,06,20,00,11,11.70
2015,06,20,00,12,11.70
2015,06,20,00,13,11.60
2015,06,20,00,14,11.60
2015,06,20,00,15,11.60
2015,06,20,00,16,11.60
2015,06,20,00,17,11.50
2015,06,20,00,18,11.50
2015,06,20,00,19,11.50
2015,06,20,00,20,11.50
2015,06,20,00,21,11.40
2015,06,20,00,22,11.40
2015,06,20,00,23,11.40
2015,06,20,00,24,11.40
2015,06,20,00,25,11.40
2015,06,20,00,26,11.30
2015,06,20,00,27,11.30
2015,06,20,00,28,11.30
2015,06,20,00,29,11.30
2015,06,20,00,30,11.30
2015,06,20,00,31,11.30
2015,06,20,00,32,11.30
2015,06,20,00,33,11.30
2015,06,20,00,34,11.30
2015,06,20,00,35,11.30
2015,06,20,00,36,11.20
2015,06,20,00,37,11.20
2015,06,20,00,38,11.20
2015,06,20,00,39,11.20
2015,06,20,00,40,11.20
2015,06,20,00,41,11.20
2015,06,20,00,42,11.20
2015,06,20,00,43,11.20
2015,06,20,00,44,11.20
2015,06,20,00,45,11.20
2015,06,20,00,46,11.20
2015,06,20,00,47,11.20
2015,06,20,00,48,11.20
2015,06,20,00,49,11.10
2015,06,20,00,50,11.10
2015,06,20,00,51,11.10
2015,06,20,00,52,11.10
2015,06,20,00,53,11.10
2015,06,20,00,54,11.10
2015,06,20,00,55,11.10
2015,06,20,00,56,11.10
2015,06,20,00,57,11.10
2015,06,20,00,58,11.10
2015,06,20,00,59,11.10
2015,06,20,01,00,11.10
2015,06,20,01,01,11.10
2015,06,20,01,02,11.00
2015,06,20,01,03,11.00
2015,06,20,01,04,11.00
2015,06,20,01,05,11.00
2015,06,20,01,06,11.00
2015,06,20,01,07,11.00
2015,06,20,01,08,10.90
2015,06,20,01,09,10.90
2015,06,20,01,10,10.90
2015,06,20,01,11,10.90
2015,06,20,01,12,10.90
2015,06,20,01,13,10.90
2015,06,20,01,14,10.80
2015,06,20,01,15,10.80
2015,06,20,01,16,10.80
2015,06,20,01,17,10.80
2015,06,20,01,18,10.80
2015,06,20,01,19,10.80
2015,06,20,01,20,10.80
2015,06,20,01,21,10.70
2015,06,20,01,22,10.70
2015,06,20,01,23,10.70
2015,06,20,01,24,10.70
2015,06,20,01,25,10.70
2015,06,20,01,26,10.70
2015,06,20,01,27,10.60
2015,06,20,01,28,10.60
2015,06,20,01,29,10.60
2015,06,20,01,30,10.60
2015,06,20,01,31,10.60
2015,06,20,01,32,10.50
2015,06,20,01,33,10.50
2015,06,20,01,34,10.50
2015,06,20,01,35,10.50
2015,06,20,01,36,10.40
2015,06,20,01,37,10.40
2015,06,20,01,38,10.40
2015,06,20,01,39,10.40
2015,06,20,01,40,10.30
2015,06,20,01,41,10.30
2015,06,20,01,42,10.30
2015,06,20,01,43,10.30
2015,06,20,01,44,10.30
2015,06,20,01,45,10.20
2015,06,20,01,46,10.20
2015,06,20,01,47,10.20
2015,06,20,01,48,10.20
2015,06,20,01,49,10.20
2015,06,20,01,50,10.10
2015,06,20,01,51,10.10
2015,06,20,01,52,10.10
2015,06,20,01,53,10.10
2015,06,20,01,54,10.10
2015,06,20,01,55,10.00
2015,06,20,01,56,10.00
2015,06,20,01,57,10.00
2015,06,20,01,58,10.00
2015,06,20,01,59,9.90
2015,06,20,02,00,9.90
2015,06,20,02,01,9.90
2015,06,20,02,02,9.90
2015,06,20,02,03,9.90
2015,06,20,02,04,9.90
2015,06,20,02,05,9.80
2015,06,20,02,06,9.80
2015,06,20,02,07,9.80
2015,06,20,02,08,9.80
2015,06,20,02,09,9.80
2015,06,20,02,10,9.80
2015,06,20,02,11,9.80
2015,06,20,02,12,9.80
2015,06,20,02,13,9.80
2015,06,20,02,14,9.70
2015,06,20,02,15,9.70
2015,06,20,02,16,9.70
2015,06,20,02,17,9.70
2015,06,20,02,18,9.70
2015,06,20,02,19,9.70
2015,06,20,02,20,9.70
2015,06,20,02,21,9.70
2015,06,20,02,22,9.70
2015,06,20,02,23,9.70
2015,06,20,02,24,9.70
2015,06,20,02,25,9.70
2015,06,20,02,26,9.70
2015,06,20,02,27,9.70
2015,06,20,02,28,9.60
2015,06,20,02,29,9.60
2015,06,20,02,30,9.60
2015,06,20,02,31,9.60
2015,06,20,02,32,9.60
2015,06,20,02,33,9.60
2015,06,20,02,34,9.50
2015,06,20,02,35,9.50
2015,06,20,02,36,9.50
2015,06,20,02,37,9.40
2015,06,20,02,38,9.40
2015,06,20,02,39,9.40
2015,06,20,02,40,9.40
2015,06,20,02,41,9.40
2015,06,20,02,42,9.40
2015,06,20,02,43,9.30
2015,06,20,02,44,9.30
2015,06,20,02,45,9.30
2015,06,20,02,46,9.30
2015,06,20,02,47,9.30
2015,06,20,02,48,9.30
2015,06,20,02,49,9.30
2015,06,20,02,50,9.30
2015,06,20,02,51,9.30
2015,06,20,02,52,9.20
2015,06,20,02,53,9.20
2015,06,20,02,54,9.20
2015,06,20,02,55,9.20
2015,06,20,02,56,9.20
2015,06,20,02,57,9.20
2015,06,20,02,58,9.20
2015,06,20,02,59,9.10
2015,06,20,03,00,9.10
2015,06,20,03,01,9.10
2015,06,20,03,02,9.10
2015,06,20,03,03,9.10
2015,06,20,03,04,9.10
2015,06,20,03,05,9.10
2015,06,20,03,06,9.00
2015,06,20,03,07,9.00
2015,06,20,03,08,9.00
2015,06,20,03,09,9.00
2015,06,20,03,10,8.90
2015,06,20,03,11,8.90
2015,06,20,03,12,8.90
2015,06,20,03,13,8.90
2015,06,20,03,14,8.90
2015,06,20,03,15,8.90
2015,06,20,03,16,8.90
2015,06,20,03,17,8.90
2015,06,20,03,18,8.80
2015,06,20,03,19,8.90
2015,06,20,03,20,8.80
2015,06,20,03,21,8.80
2015,06,20,03,22,8.80
2015,06,20,03,23,8.80
2015,06,20,03,24,8.80
2015,06,20,03,25,8.80
2015,06,20,03,26,8.80
2015,06,20,03,27,8.80
2015,06,20,03,28,8.80
2015,06,20,03,29,8.80
2015,06,20,03,30,8.80
2015,06,20,03,31,8.80
2015,06,20,03,32,8.70
2015,06,20,03,33,8.70
2015,06,20,03,34,8.70
2015,06,20,03,35,8.70
2015,06,20,03,36,8.70
2015,06,20,03,37,8.70
2015,06,20,03,38,8.70
2015,06,20,03,39,8.70
2015,06,20,03,40,8.70
2015,06,20,03,41,8.60
2015,06,20,03,42,8.60
2015,06,20,03,43,8.60
2015,06,20,03,44,8.60
2015,06,20,03,45,8.60
2015,06,20,03,46,8.60
2015,06,20,03,47,8.50
2015,06,20,03,48,8.50
2015,06,20,03,49,8.50
2015,06,20,03,50,8.50
2015,06,20,03,51,8.50
2015,06,20,03,52,8.40
2015,06,20,03,53,8.40
2015,06,20,03,54,8.40
2015,06,20,03,55,8.40
2015,06,20,03,56,8.40
2015,06,20,03,57,8.40
2015,06,20,03,58,8.40
2015,06,20,03,59,8.40
2015,06,20,04,00,8.40
2015,06,20,04,01,8.40
2015,06,20,04,02,8.40
2015,06,20,04,03,8.40
2015,06,20,04,04,8.40
2015,06,20,04,05,8.40
2015,06,20,04,06,8.40
2015,06,20,04,07,8.40
2015,06,20,04,08,8.30
2015,06,20,04,09,8.30
2015,06,20,04,10,8.30
2015,06,20,04,11,8.30
2015,06,20,04,12,8.30
2015,06,20,04,13,8.30
2015,06,20,04,14,8.30
2015,06,20,04,15,8.30
2015,06,20,04,16,8.30
2015,06,20,04,17,8.30
2015,06,20,04,18,8.30
2015,06,20,04,19,8.30
2015,06,20,04,20,8.30
2015,06,20,04,21,8.20
2015,06,20,04,22,8.20
2015,06,20,04,23,8.20
2015,06,20,04,24,8.20
2015,06,20,04,25,8.20
2015,06,20,04,26,8.20
2015,06,20,04,27,8.20
2015,06,20,04,28,8.20
2015,06,20,04,29,8.20
2015,06,20,04,30,8.20
2015,06,20,04,31,8.20
2015,06,20,04,32,8.20
2015,06,20,04,33,8.20
2015,06,20,04,34,8.20
2015,06,20,04,35,8.20
2015,06,20,04,36,8.20
2015,06,20,04,37,8.10
2015,06,20,04,38,8.10
2015,06,20,04,39,8.10
2015,06,20,04,40,8.10
2015,06,20,04,41,8.10
2015,06,20,04,42,8.10
2015,06,20,04,43,8.10
2015,06,20,04,44,8.10
2015,06,20,04,45,8.10
2015,06,20,04,46,8.10
2015,06,20,04,47,8.10
2015,06,20,04,48,8.10
2015,06,20,04,49,8.00
2015,06,20,04,50,8.00
2015,06,20,04,51,8.00
2015,06,20,04,52,8.00
2015,06,20,04,53,8.00
2015,06,20,04,54,8.00
2015,06,20,04,55,7.90
2015,06,20,04,56,7.90
2015,06,20,04,57,7.90
2015,06,20,04,58,7.90
2015,06,20,04,59,7.90
2015,06,20,05,00,7.90
2015,06,20,05,01,7.90
2015,06,20,05,02,7.80
2015,06,20,05,03,7.80
2015,06,20,05,04,7.80
2015,06,20,05,05,7.80
2015,06,20,05,06,7.80
2015,06,20,05,07,7.90
2015,06,20,05,08,7.90
2015,06,20,05,09,7.90
2015,06,20,05,10,7.90
2015,06,20,05,11,7.90
2015,06,20,05,12,7.90
2015,06,20,05,13,7.90
2015,06,20,05,14,7.90
2015,06,20,05,15,7.90
2015,06,20,05,16,7.90
2015,06,20,05,17,7.90
2015,06,20,05,18,7.90
2015,06,20,05,19,7.90
2015,06,20,05,20,7.90
2015,06,20,05,21,7.80
2015,06,20,05,22,7.80
2015,06,20,05,23,7.80
2015,06,20,05,24,7.80
2015,06,20,05,25,7.80
2015,06,20,05,26,7.80
2015,06,20,05,27,7.80
2015,06,20,05,28,7.80
2015,06,20,05,29,7.70
2015,06,20,05,30,7.70
2015,06,20,05,31,7.70
2015,06,20,05,32,7.70
2015,06,20,05,33,7.70
2015,06,20,05,34,7.70
2015,06,20,05,35,7.70
2015,06,20,05,36,7.70
2015,06,20,05,37,7.70
2015,06,20,05,38,7.70
2015,06,20,05,39,7.70
2015,06,20,05,40,7.70
2015,06,20,05,41,7.70
2015,06,20,05,42,7.70
2015,06,20,05,43,7.70
2015,06,20,05,44,7.70
2015,06,20,05,45,7.80
2015,06,20,05,46,7.80
2015,06,20,05,47,7.80
2015,06,20,05,48,7.80
2015,06,20,05,49,7.80
2015,06,20,05,50,7.80
2015,06,20,05,51,7.80
2015,06,20,05,52,7.80
2015,06,20,05,53,7.90
2015,06,20,05,54,7.90
2015,06,20,05,55,7.90
2015,06,20,05,56,7.90
2015,06,20,05,57,7.90
2015,06,20,05,58,7.90
2015,06,20,05,59,7.90
2015,06,20,06,00,7.90
2015,06,20,06,01,7.90
2015,06,20,06,02,7.90
2015,06,20,06,03,8.00
2015,06,20,06,04,8.00
2015,06,20,06,05,8.00
2015,06,20,06,06,8.00
2015,06,20,06,07,8.00
2015,06,20,06,08,8.00
2015,06,20,06,09,8.00
2015,06,20,06,10,8.00
2015,06,20,06,11,8.10
2015,06,20,06,12,8.10
2015,06,20,06,13,8.10
2015,06,20,06,14,8.10
2015,06,20,06,15,8.20
2015,06,20,06,16,8.20
2015,06,20,06,17,8.30
2015,06,20,06,18,8.30
2015,06,20,06,19,8.40
2015,06,20,06,20,8.50
2015,06,20,06,21,8.50
2015,06,20,06,22,8.60
2015,06,20,06,23,8.70
2015,06,20,06,24,8.80
2015,06,20,06,25,8.80
2015,06,20,06,26,8.90
2015,06,20,06,27,8.90
2015,06,20,06,28,9.00
2015,06,20,06,29,9.10
2015,06,20,06,30,9.20
2015,06,20,06,31,9.30
2015,06,20,06,32,9.30
2015,06,20,06,33,9.40
2015,06,20,06,34,9.50
2015,06,20,06,35,9.60
2015,06,20,06,36,9.70
2015,06,20,06,37,9.70
2015,06,20,06,38,9.80
2015,06,20,06,39,9.90
2015,06,20,06,40,9.90
2015,06,20,06,41,10.00
2015,06,20,06,42,10.10
2015,06,20,06,43,10.10
2015,06,20,06,44,10.20
2015,06,20,06,45,10.20
2015,06,20,06,46,10.30
2015,06,20,06,47,10.30
2015,06,20,06,48,10.40
2015,06,20,06,49,10.50
2015,06,20,06,50,10.50
2015,06,20,06,51,10.60
2015,06,20,06,52,10.60
2015,06,20,06,53,10.70
2015,06,20,06,54,10.70
2015,06,20,06,55,10.80
2015,06,20,06,56,10.80
2015,06,20,06,57,10.80
2015,06,20,06,58,10.80
2015,06,20,06,59,10.80
2015,06,20,07,00,10.80
2015,06,20,07,01,10.90
2015,06,20,07,02,10.90
2015,06,20,07,03,11.00
2015,06,20,07,04,11.10
2015,06,20,07,05,11.10
2015,06,20,07,06,11.20
2015,06,20,07,07,11.30
2015,06,20,07,08,11.30
2015,06,20,07,09,11.40
2015,06,20,07,10,11.40
2015,06,20,07,11,11.50
2015,06,20,07,12,11.60
2015,06,20,07,13,11.70
2015,06,20,07,14,11.70
2015,06,20,07,15,11.70
2015,06,20,07,16,11.80
2015,06,20,07,17,11.80
2015,06,20,07,18,11.80
2015,06,20,07,19,11.90
2015,06,20,07,20,12.00
2015,06,20,07,21,12.10
2015,06,20,07,22,12.20
2015,06,20,07,23,12.20
2015,06,20,07,24,12.30
2015,06,20,07,25,12.30
2015,06,20,07,26,12.30
2015,06,20,07,27,12.40
2015,06,20,07,28,12.50
2015,06,20,07,29,12.50
2015,06,20,07,30,12.60
2015,06,20,07,31,12.60
2015,06,20,07,32,12.70
2015,06,20,07,33,12.80
2015,06,20,07,34,12.90
2015,06,20,07,35,13.00
2015,06,20,07,36,13.00
2015,06,20,07,37,13.10
2015,06,20,07,38,13.10
2015,06,20,07,39,13.20
2015,06,20,07,40,13.20
2015,06,20,07,41,13.20
2015,06,20,07,42,13.20
2015,06,20,07,43,13.30
2015,06,20,07,44,13.30
2015,06,20,07,45,13.30
2015,06,20,07,46,13.40
2015,06,20,07,47,13.40
2015,06,20,07,48,13.50
2015,06,20,07,49,13.60
2015,06,20,07,50,13.70
2015,06,20,07,51,13.80
2015,06,20,07,52,13.90
2015,06,20,07,53,13.90
2015,06,20,07,54,14.00
2015,06,20,07,55,14.10
2015,06,20,07,56,14.20
2015,06,20,07,57,14.20
2015,06,20,07,58,14.30
2015,06,20,07,59,14.40
2015,06,20,08,00,14.40
2015,06,20,08,01,14.50
2015,06,20,08,02,14.60
2015,06,20,08,03,14.70
2015,06,20,08,04,14.80
2015,06,20,08,05,14.90
2015,06,20,08,06,14.90
2015,06,20,08,07,15.00
2015,06,20,08,08,15.10
2015,06,20,08,09,15.20
2015,06,20,08,10,15.30
2015,06,20,08,11,15.40
2015,06,20,08,12,15.50
2015,06,20,08,13,15.60
2015,06,20,08,14,15.70
2015,06,20,08,15,15.80
2015,06,20,08,16,15.90
2015,06,20,08,17,16.00
2015,06,20,08,18,16.10
2015,06,20,08,19,16.20
2015,06,20,08,20,16.30
2015,06,20,08,21,16.40
2015,06,20,08,22,16.50
2015,06,20,08,23,16.60
2015,06,20,08,24,16.70
2015,06,20,08,25,16.80
2015,06,20,08,26,16.90
2015,06,20,08,27,17.00
2015,06,20,08,28,17.10
2015,06,20,08,29,17.10
2015,06,20,08,30,17.10
2015,06,20,08,31,17.10
2015,06,20,08,32,17.10
2015,06,20,08,33,17.10
2015,06,20,08,34,17.10
2015,06,20,08,35,17.20
2015,06,20,08,36,17.20
2015,06,20,08,37,17.20
2015,06,20,08,38,17.20
2015,06,20,08,39,17.20
2015,06,20,08,40,17.20
2015,06,20,08,41,17.20
2015,06,20,08,42,17.20
2015,06,20,08,43,17.20
2015,06,20,08,44,17.20
2015,06,20,08,45,17.20
2015,06,20,08,46,17.20
2015,06,20,08,47,17.30
2015,06,20,08,48,17.40
2015,06,20,08,49,17.60
2015,06,20,08,50,17.70
2015,06,20,08,51,17.80
2015,06,20,08,52,18.00
2015,06,20,08,53,18.10
2015,06,20,08,54,18.10
2015,06,20,08,55,18.10
2015,06,20,08,56,18.00
2015,06,20,08,57,17.90
2015,06,20,08,58,17.80
2015,06,20,08,59,17.70
2015,06,20,09,00,17.70
2015,06,20,09,01,17.70
2015,06,20,09,02,17.70
2015,06,20,09,03,17.60
2015,06,20,09,04,17.50
2015,06,20,09,05,17.40
2015,06,20,09,06,17.40
2015,06,20,09,07,17.30
2015,06,20,09,08,17.20
2015,06,20,09,09,17.10
2015,06,20,09,10,17.10
2015,06,20,09,11,17.10
2015,06,20,09,12,17.10
2015,06,20,09,13,17.10
2015,06,20,09,14,17.20
2015,06,20,09,15,17.30
2015,06,20,09,16,17.30
2015,06,20,09,17,17.40
2015,06,20,09,18,17.50
2015,06,20,09,19,17.70
2015,06,20,09,20,17.90
2015,06,20,09,21,18.00
2015,06,20,09,22,18.00
2015,06,20,09,23,18.00
2015,06,20,09,24,18.00
2015,06,20,09,25,18.00
2015,06,20,09,26,17.90
2015,06,20,09,27,17.90
2015,06,20,09,28,17.90
2015,06,20,09,29,17.90
2015,06,20,09,30,18.00
2015,06,20,09,31,18.00
2015,06,20,09,32,18.10
2015,06,20,09,33,18.10
2015,06,20,09,34,18.20
2015,06,20,09,35,18.20
2015,06,20,09,36,18.30
2015,06,20,09,37,18.30
2015,06,20,09,38,18.40
2015,06,20,09,39,18.40
2015,06,20,09,40,18.40
2015,06,20,09,41,18.50
2015,06,20,09,42,18.50
2015,06,20,09,43,18.60
2015,06,20,09,44,18.60
2015,06,20,09,45,18.70
2015,06,20,09,46,18.60
2015,06,20,09,47,18.60
2015,06,20,09,48,18.50
2015,06,20,09,49,18.40
2015,06,20,09,50,18.30
2015,06,20,09,51,18.30
2015,06,20,09,52,18.30
2015,06,20,09,53,18.40
2015,06,20,09,54,18.50
2015,06,20,09,55,18.60
2015,06,20,09,56,18.70
2015,06,20,09,57,18.80
2015,06,20,09,58,18.80
2015,06,20,09,59,18.80
2015,06,20,10,00,18.80
2015,06,20,10,01,18.80
2015,06,20,10,02,18.70
2015,06,20,10,03,18.60
2015,06,20,10,04,18.50
2015,06,20,10,05,18.40
2015,06,20,10,06,18.40
2015,06,20,10,07,18.40
2015,06,20,10,08,18.50
2015,06,20,10,09,18.60
2015,06,20,10,10,18.70
2015,06,20,10,11,18.80
2015,06,20,10,12,18.80
2015,06,20,10,13,18.90
2015,06,20,10,14,19.00
2015,06,20,10,15,19.10
2015,06,20,10,16,19.10
2015,06,20,10,17,19.10
2015,06,20,10,18,19.00
2015,06,20,10,19,19.00
2015,06,20,10,20,19.00
2015,06,20,10,21,19.00
2015,06,20,10,22,19.00
2015,06,20,10,23,18.90
2015,06,20,10,24,18.80
2015,06,20,10,25,18.70
2015,06,20,10,26,18.60
2015,06,20,10,27,18.50
2015,06,20,10,28,18.40
2015,06,20,10,29,18.40
2015,06,20,10,30,18.40
2015,06,20,10,31,18.40
2015,06,20,10,32,18.40
2015,06,20,10,33,18.40
2015,06,20,10,34,18.50
2015,06,20,10,35,18.50
2015,06,20,10,36,18.60
2015,06,20,10,37,18.60
2015,06,20,10,38,18.60
2015,06,20,10,39,18.60
2015,06,20,10,40,18.60
2015,06,20,10,41,18.60
2015,06,20,10,42,18.60
2015,06,20,10,43,18.60
2015,06,20,10,44,18.50
2015,06,20,10,45,18.50
2015,06,20,10,46,18.60
2015,06,20,10,47,18.70
2015,06,20,10,48,18.70
2015,06,20,10,49,18.80
2015,06,20,10,50,18.80
2015,06,20,10,51,18.90
2015,06,20,10,52,18.90
2015,06,20,10,53,18.90
2015,06,20,10,54,18.90
2015,06,20,10,55,19.00
2015,06,20,10,56,19.10
2015,06,20,10,57,19.20
2015,06,20,10,58,19.40
2015,06,20,10,59,19.60
2015,06,20,11,00,19.80
2015,06,20,11,01,19.90
2015,06,20,11,02,20.00
2015,06,20,11,03,19.90
2015,06,20,11,04,19.70
2015,06,20,11,05,19.60
2015,06,20,11,06,19.60
2015,06,20,11,07,19.50
2015,06,20,11,08,19.50
2015,06,20,11,09,19.50
2015,06,20,11,10,19.50
2015,06,20,11,11,19.40
2015,06,20,11,12,19.40
2015,06,20,11,13,19.30
2015,06,20,11,14,19.30
2015,06,20,11,15,19.30
2015,06,20,11,16,19.30
2015,06,20,11,17,19.40
2015,06,20,11,18,19.50
2015,06,20,11,19,19.70
2015,06,20,11,20,19.80
2015,06,20,11,21,19.90
2015,06,20,11,22,20.10
2015,06,20,11,23,20.10
2015,06,20,11,24,20.20
2015,06,20,11,25,20.30
2015,06,20,11,26,20.40
2015,06,20,11,27,20.50
2015,06,20,11,28,20.60
2015,06,20,11,29,20.60
2015,06,20,11,30,20.50
2015,06,20,11,31,20.50
2015,06,20,11,32,20.40
2015,06,20,11,33,20.30
2015,06,20,11,34,20.20
2015,06,20,11,35,20.20
2015,06,20,11,36,20.10
2015,06,20,11,37,19.90
2015,06,20,11,38,19.90
2015,06,20,11,39,19.80
2015,06,20,11,40,19.80
2015,06,20,11,41,19.90
2015,06,20,11,42,20.00
2015,06,20,11,43,20.00
2015,06,20,11,44,19.90
2015,06,20,11,45,19.80
2015,06,20,11,46,19.70
2015,06,20,11,47,19.80
2015,06,20,11,48,19.80
2015,06,20,11,49,19.80
2015,06,20,11,50,19.80
2015,06,20,11,51,19.90
2015,06,20,11,52,20.00
2015,06,20,11,53,20.10
2015,06,20,11,54,20.00
2015,06,20,11,55,19.90
2015,06,20,11,56,19.70
2015,06,20,11,57,19.70
2015,06,20,11,58,19.60
2015,06,20,11,59,19.60
2015,06,20,12,00,19.60
2015,06,20,12,01,19.60
2015,06,20,12,02,19.50
2015,06,20,12,03,19.40
2015,06,20,12,04,19.30
2015,06,20,12,05,19.30
2015,06,20,12,06,19.30
2015,06,20,12,07,19.30
2015,06,20,12,08,19.40
2015,06,20,12,09,19.30
2015,06,20,12,10,19.30
2015,06,20,12,11,19.30
2015,06,20,12,12,19.50
2015,06,20,12,13,19.60
2015,06,20,12,14,19.70
2015,06,20,12,15,19.70
2015,06,20,12,16,19.80
2015,06,20,12,17,19.90
2015,06,20,12,18,20.00
2015,06,20,12,19,19.90
2015,06,20,12,20,19.80
2015,06,20,12,21,19.60
2015,06,20,12,22,19.50
2015,06,20,12,23,19.50
2015,06,20,12,24,19.50
2015,06,20,12,25,19.60
2015,06,20,12,26,19.70
2015,06,20,12,27,19.70
2015,06,20,12,28,19.60
2015,06,20,12,29,19.60
2015,06,20,12,30,19.60
2015,06,20,12,31,19.60
2015,06,20,12,32,19.60
2015,06,20,12,33,19.60
2015,06,20,12,34,19.50
2015,06,20,12,35,19.40
2015,06,20,12,36,19.30
2015,06,20,12,37,19.30
2015,06,20,12,38,19.30
2015,06,20,12,39,19.30
2015,06,20,12,40,19.30
2015,06,20,12,41,19.40
2015,06,20,12,42,19.40
2015,06,20,12,43,19.40
2015,06,20,12,44,19.50
2015,06,20,12,45,19.60
2015,06,20,12,46,19.60
2015,06,20,12,47,19.70
2015,06,20,12,48,19.70
2015,06,20,12,49,19.80
2015,06,20,12,50,19.90
2015,06,20,12,51,20.00
2015,06,20,12,52,20.00
2015,06,20,12,53,19.90
2015,06,20,12,54,19.80
2015,06,20,12,55,19.90
2015,06,20,12,56,20.00
2015,06,20,12,57,20.10
2015,06,20,12,58,20.20
2015,06,20,12,59,20.30
2015,06,20,13,00,20.30
2015,06,20,13,01,20.30
2015,06,20,13,02,20.20
2015,06,20,13,03,20.20
2015,06,20,13,04,20.20
2015,06,20,13,05,20.20
2015,06,20,13,06,20.20
2015,06,20,13,07,20.30
2015,06,20,13,08,20.20
2015,06,20,13,09,20.10
2015,06,20,13,10,20.00
2015,06,20,13,11,20.10
2015,06,20,13,12,20.10
2015,06,20,13,13,20.20
2015,06,20,13,14,20.20
2015,06,20,13,15,20.10
2015,06,20,13,16,20.10
2015,06,20,13,17,20.10
2015,06,20,13,18,20.10
2015,06,20,13,19,20.00
2015,06,20,13,20,20.00
2015,06,20,13,21,20.00
2015,06,20,13,22,20.20
2015,06,20,13,23,20.30
2015,06,20,13,24,20.40
2015,06,20,13,25,20.40
2015,06,20,13,26,20.40
2015,06,20,13,27,20.30
2015,06,20,13,28,20.30
2015,06,20,13,29,20.30
2015,06,20,13,30,20.40
2015,06,20,13,31,20.40
2015,06,20,13,32,20.40
2015,06,20,13,33,20.50
2015,06,20,13,34,20.60
2015,06,20,13,35,20.60
2015,06,20,13,36,20.70
2015,06,20,13,37,20.80
2015,06,20,13,38,20.90
2015,06,20,13,39,20.90
2015,06,20,13,40,20.90
2015,06,20,13,41,20.80
2015,06,20,13,42,20.70
2015,06,20,13,43,20.60
2015,06,20,13,44,20.40
2015,06,20,13,45,20.30
2015,06,20,13,46,20.40
2015,06,20,13,47,20.40
2015,06,20,13,48,20.50
2015,06,20,13,49,20.60
2015,06,20,13,50,20.60
2015,06,20,13,51,20.70
2015,06,20,13,52,20.70
2015,06,20,13,53,20.60
2015,06,20,13,54,20.50
2015,06,20,13,55,20.50
2015,06,20,13,56,20.50
2015,06,20,13,57,20.60
2015,06,20,13,58,20.60
2015,06,20,13,59,20.60
2015,06,20,14,00,20.60
2015,06,20,14,01,20.50
2015,06,20,14,02,20.30
2015,06,20,14,03,20.10
2015,06,20,14,04,19.90
2015,06,20,14,05,19.90
2015,06,20,14,06,19.80
2015,06,20,14,07,19.80
2015,06,20,14,08,19.80
2015,06,20,14,09,19.80
2015,06,20,14,10,20.00
2015,06,20,14,11,20.10
2015,06,20,14,12,20.20
2015,06,20,14,13,20.20
2015,06,20,14,14,20.20
2015,06,20,14,15,20.30
2015,06,20,14,16,20.30
2015,06,20,14,17,20.40
2015,06,20,14,18,20.40
2015,06,20,14,19,20.50
2015,06,20,14,20,20.50
2015,06,20,14,21,20.50
2015,06,20,14,22,20.40
2015,06,20,14,23,20.40
2015,06,20,14,24,20.30
2015,06,20,14,25,20.30
2015,06,20,14,26,20.40
2015,06,20,14,27,20.50
2015,06,20,14,28,20.60
2015,06,20,14,29,20.80
2015,06,20,14,30,20.80
2015,06,20,14,31,20.90
2015,06,20,14,32,21.00
2015,06,20,14,33,21.00
2015,06,20,14,34,20.90
2015,06,20,14,35,20.80
2015,06,20,14,36,20.70
2015,06,20,14,37,20.60
2015,06,20,14,38,20.50
2015,06,20,14,39,20.40
2015,06,20,14,40,20.40
2015,06,20,14,41,20.40
2015,06,20,14,42,20.30
2015,06,20,14,43,20.20
2015,06,20,14,44,20.00
2015,06,20,14,45,19.90
2015,06,20,14,46,19.80
2015,06,20,14,47,19.70
2015,06,20,14,48,19.60
2015,06,20,14,49,19.60
2015,06,20,14,50,19.40
2015,06,20,14,51,19.40
2015,06,20,14,52,19.30
2015,06,20,14,53,19.30
2015,06,20,14,54,19.30
2015,06,20,14,55,19.30
2015,06,20,14,56,19.30
2015,06,20,14,57,19.40
2015,06,20,14,58,19.40
2015,06,20,14,59,19.50
2015,06,20,15,00,19.50
2015,06,20,15,01,19.50
2015,06,20,15,02,19.50
2015,06,20,15,03,19.60
2015,06,20,15,04,19.60
2015,06,20,15,05,19.60
2015,06,20,15,06,19.70
2015,06,20,15,07,19.70
2015,06,20,15,08,19.70
2015,06,20,15,09,19.70
2015,06,20,15,10,19.70
2015,06,20,15,11,19.70
2015,06,20,15,12,19.60
2015,06,20,15,13,19.60
2015,06,20,15,14,19.60
2015,06,20,15,15,19.60
2015,06,20,15,16,19.60
2015,06,20,15,17,19.50
2015,06,20,15,18,19.50
2015,06,20,15,19,19.60
2015,06,20,15,20,19.60
2015,06,20,15,21,19.60
2015,06,20,15,22,19.60
2015,06,20,15,23,19.60
2015,06,20,15,24,19.70
2015,06,20,15,25,19.70
2015,06,20,15,26,19.80
2015,06,20,15,27,19.90
2015,06,20,15,28,20.10
2015,06,20,15,29,20.20
2015,06,20,15,30,20.10
2015,06,20,15,31,20.10
2015,06,20,15,32,20.10
2015,06,20,15,33,20.10
2015,06,20,15,34,20.10
2015,06,20,15,35,20.00
2015,06,20,15,36,20.00
2015,06,20,15,37,20.10
2015,06,20,15,38,20.10
2015,06,20,15,39,20.20
2015,06,20,15,40,20.10
2015,06,20,15,41,20.10
2015,06,20,15,42,20.10
2015,06,20,15,43,20.10
2015,06,20,15,44,20.00
2015,06,20,15,45,19.80
2015,06,20,15,46,19.70
2015,06,20,15,47,19.60
2015,06,20,15,48,19.60
2015,06,20,15,49,19.50
2015,06,20,15,50,19.50
2015,06,20,15,51,19.50
2015,06,20,15,52,19.40
2015,06,20,15,53,19.40
2015,06,20,15,54,19.50
2015,06,20,15,55,19.60
2015,06,20,15,56,19.80
2015,06,20,15,57,19.90
2015,06,20,15,58,20.00
2015,06,20,15,59,20.00
2015,06,20,16,00,20.00
2015,06,20,16,01,20.00
2015,06,20,16,02,20.10
2015,06,20,16,03,20.20
2015,06,20,16,04,20.20
2015,06,20,16,05,20.30
2015,06,20,16,06,20.40
2015,06,20,16,07,20.40
2015,06,20,16,08,20.30
2015,06,20,16,09,20.20
2015,06,20,16,10,20.10
2015,06,20,16,11,20.10
2015,06,20,16,12,20.00
2015,06,20,16,13,19.90
2015,06,20,16,14,20.00
2015,06,20,16,15,20.10
2015,06,20,16,16,20.10
2015,06,20,16,17,20.20
2015,06,20,16,18,20.30
2015,06,20,16,19,20.40
2015,06,20,16,20,20.30
2015,06,20,16,21,20.20
2015,06,20,16,22,20.20
2015,06,20,16,23,20.20
2015,06,20,16,24,20.30
2015,06,20,16,25,20.30
2015,06,20,16,26,20.30
2015,06,20,16,27,20.30
2015,06,20,16,28,20.30
2015,06,20,16,29,20.30
2015,06,20,16,30,20.30
2015,06,20,16,31,20.20
2015,06,20,16,32,20.10
2015,06,20,16,33,20.10
2015,06,20,16,34,20.00
2015,06,20,16,35,20.00
2015,06,20,16,36,20.00
2015,06,20,16,37,19.90
2015,06,20,16,38,20.00
2015,06,20,16,39,20.10
2015,06,20,16,40,20.10
2015,06,20,16,41,20.30
2015,06,20,16,42,20.40
2015,06,20,16,43,20.60
2015,06,20,16,44,20.70
2015,06,20,16,45,20.80
2015,06,20,16,46,20.80
2015,06,20,16,47,20.90
2015,06,20,16,48,20.90
2015,06,20,16,49,20.90
2015,06,20,16,50,20.90
2015,06,20,16,51,20.80
2015,06,20,16,52,20.80
2015,06,20,16,53,20.80
2015,06,20,16,54,20.70
2015,06,20,16,55,20.60
2015,06,20,16,56,20.50
2015,06,20,16,57,20.30
2015,06,20,16,58,20.30
2015,06,20,16,59,20.30
2015,06,20,17,00,20.20
2015,06,20,17,01,20.10
2015,06,20,17,02,20.00
2015,06,20,17,03,19.90
2015,06,20,17,04,19.80
2015,06,20,17,05,19.80
2015,06,20,17,06,19.70
2015,06,20,17,07,19.70
2015,06,20,17,08,19.70
2015,06,20,17,09,19.70
2015,06,20,17,10,19.60
2015,06,20,17,11,19.60
2015,06,20,17,12,19.50
2015,06,20,17,13,19.40
2015,06,20,17,14,19.30
2015,06,20,17,15,19.20
2015,06,20,17,16,19.20
2015,06,20,17,17,19.10
2015,06,20,17,18,19.10
2015,06,20,17,19,19.10
2015,06,20,17,20,19.10
2015,06,20,17,21,19.10
2015,06,20,17,22,19.10
2015,06,20,17,23,19.10
2015,06,20,17,24,19.20
2015,06,20,17,25,19.30
2015,06,20,17,26,19.30
2015,06,20,17,27,19.30
2015,06,20,17,28,19.30
2015,06,20,17,29,19.30
2015,06,20,17,30,19.30
2015,06,20,17,31,19.40